Regional Weather Roundup
Issued by NWS

Home | Current Version | Previous Version | Text Only | Print | Product List | Glossary Off
Versions: 1 2 3 4 5 6 7 8 9 10 11 12 13 14 15 16 17 18 19 20 21 22 23 24 25 26 27 28 29 30 31 32 33 34 35 36 37 38 39 40 41 42 43 44 45 46 47 48 49 50

000
ASUS43 KOAX 280710
RWRNE

WEATHER ROUNDUP FOR NEBRASKA
NATIONAL WEATHER SERVICE OMAHA NE
200 AM CDT WED JUN 28 2017

NOTES: SATELLITE DATA IS BEING USED TO AUGMENT CLOUD COVER ABOVE
       12000 FEET.
       "FAIR" INDICATES FEW OR NO CLOUDS BELOW 12,000 FEET WITH NO
       SIGNIFICANT WEATHER AND/OR OBSTRUCTIONS TO VISIBILITY.

  * THESE STATIONS DO NOT REPORT WEATHER SUCH AS RAIN...SNOW OR FOG.

NEZ001>004-019>022-054>056-280800-
NEBRASKA PANHANDLE

CITY           SKY/WX    TMP DP  RH WIND       PRES   REMARKS
SCOTTSBLUFF    CLEAR     58  50  75 W6        29.84R
ALLIANCE       CLEAR     54  51  90 W10       29.79S
CHADRON        CLEAR     61  51  70 W9        29.76S
GORDON         FAIR      59  54  83 W7        29.76R
KIMBALL        CLEAR     60  46  60 NW13      29.90R
SIDNEY         PTCLDY    53  50  89 W7        29.88R
$$

NEZ057>060-069>072-079>082-280800-
SOUTHWEST NEBRASKA

CITY           SKY/WX    TMP DP  RH WIND       PRES   REMARKS
NORTH PLATTE   LGT RAIN  64  60  87 SE10      29.74F
IMPERIAL       PTCLDY    67  56  67 S9        29.77F
LEXINGTON      CLOUDY    67  62  85 W5        29.78S
MCCOOK         CLOUDY    68  62  81 CALM      29.76R
OGALLALA       PTCLDY    66  56  70 CALM      29.78S
$$

NEZ005>010-023>029-035>040-094-280800-
NORTH CENTRAL NEBRASKA

CITY           SKY/WX    TMP DP  RH WIND       PRES   REMARKS
VALENTINE      CLOUDY    66  53  63 W10       29.64
AINSWORTH      MOCLDY    62  58  88 S8G20     29.59F
BROKEN BOW     CLOUDY    63  59  87 E5        29.74R
O`NEILL        DRIZZLE   66  61  84 S7        29.63F
ORD            CLOUDY    65  60  84 SW14      29.75R
THEDFORD       MOCLDY    62  56  81 S10       29.72F
$$

NEZ041-046>049-061>064-073>077-083>087-280800-
SOUTH CENTRAL NEBRASKA

CITY           SKY/WX    TMP DP  RH WIND       PRES   REMARKS
GRAND ISLAND   TSTM      65  65 100 E6        29.75R FOG
AURORA         RAIN      66  65  97 NW9       29.78R
HASTINGS       CLOUDY    68  63  84 NW15      29.80R
HEBRON         RAIN      78  67  68 SW7       29.74R
HOLDREGE       CLOUDY    65  62  89 NE6       29.74F
KEARNEY *      CLOUDY    70  63  78 N14       29.78F
YORK           CLOUDY    66  64  94 E7        29.76F
$$

NEZ011>018-030>034-042>045-280800-
NORTHEAST NEBRASKA

CITY           SKY/WX    TMP DP  RH WIND       PRES   REMARKS
NORFOLK        LGT RAIN  66  61  84 W21G26    29.72R
ALBION         LGT RAIN  68  62  80 NW7       29.75R
BLAIR          LGT RAIN  70  65  83 SW12      29.76R
FREMONT        TSTM      68  64  88 SW10G25   29.73F
TEKAMAH        TSTM      69  64  84 S14       29.71F
WAYNE          CLOUDY    69  64  84 W12       29.67R
$$

NEZ050>053-065>068-078-088>093-280800-
SOUTHEAST NEBRASKA

CITY           SKY/WX    TMP DP  RH WIND       PRES   REMARKS
LINCOLN        TSTM      70  63  78 W8G38     29.77F
OMAHA EPPLEY   TSTM      75  66  73 S16G25    29.77R
BEATRICE       CLOUDY    77  65  66 S15G25    29.73S THUNDER
FALLS CITY     CLOUDY    75  64  68 S16G29    29.76F
NEBRASKA CITY  CLOUDY    74  67  77 SW16G25   29.77R
PLATTSMOUTH    RAIN      74  64  73 W22G28    29.84R
$$

NEZ044-045-051>053-067-280800-
OMAHA AREA

CITY           SKY/WX    TMP DP  RH WIND       PRES   REMARKS
OMAHA EPPLEY   TSTM      75  66  73 S16G25    29.77R
BLAIR          LGT RAIN  70  65  83 SW12      29.76R
FREMONT        TSTM      68  64  88 SW10G25   29.73F
MILLARD        LGT RAIN  71  66  83 CALM      29.78R
OFFUTT AFB     TSTM      70  64  83 SW10G21   29.80R
PLATTSMOUTH    RAIN      74  64  73 W22G28    29.84R
WAHOO          LGT RAIN  67  65  93 S14       29.76F
$$




USA.gov is the U.S. government's official web portal to all federal, state and local government web resources and services.